Terminal Aerodrome Forecast
Issued by NWS Medford, OR

Home | Current Version | Previous Version | Text Only | Print | Product List | Glossary On
Versions: 1 2 3 4 5 6 7 8 9 10 11 12 13 14 15 16 17 18 19 20 21 22 23 24
000
FTUS46 KMFR 012327
TAFMFR
TAF
KMFR 012327Z 0200/0224 35004KT P6SM FEW200
     FM020200 VRB02KT P6SM SCT200
     FM021500 VRB03KT P6SM FEW015 SCT050 OVC080
     FM022200 34010KT P6SM SCT050=

USA.gov is the U.S. government's official web portal to all federal, state and local government web resources and services.